DateTimeUTC,F1_A11,F1_S11,BsB_S11,BsG_S11,BsR_S11,BbsB_S11,BbsG_S11,BbsR_S11,BaB_A11,BaG_A11,BaR_A11,Tu_S11,T_S11,Uu_S11,U_S11,P_S11,T1_A11
2021-04-21T01:00:00Z,00000200,21000000,,,,,,,-000.31,0000.13,-000.17,16.1,24.2,,00.0,0656.1,30.9
2021-04-21T01:01:00Z,00000200,21000000,,,,,,,-000.10,-000.43,-000.27,16.1,24.2,,00.0,0656.1,30.9
2021-04-21T01:02:00Z,00000200,21000000,,,,,,,-000.13,0000.19,-000.14,16.1,24.2,,00.0,0656.1,30.9
2021-04-21T01:03:00Z,00000200,61000000,,,,,,,-000.21,-000.41,-000.09,16.1,24.2,,00.0,0656.1,30.9
2021-04-21T01:04:00Z,00000200,41000000,0000.21,0000.15,0000.14,0000.35,0000.02,0000.19,0000.37,0000.27,-000.17,16.1,23.9,,00.0,0656.9,30.9
2021-04-21T01:05:00Z,00000200,01000000,0000.45,0000.36,0000.29,0000.44,0000.15,-000.04,0000.39,0000.26,0000.39,16.2,23.8,,00.0,0657.0,30.9
2021-04-21T01:06:00Z,00000200,01000000,0000.14,0000.48,0000.19,0000.67,0000.31,-000.03,-000.18,0000.11,0000.12,16.2,23.7,,00.0,0657.0,30.9
2021-04-21T01:07:00Z,00000200,01000000,0000.07,0000.14,0000.27,-000.08,0000.10,0000.13,0000.53,0000.34,0000.21,16.2,23.7,,00.0,0657.0,31.0
2021-04-21T01:08:00Z,00000200,01000000,0000.33,0000.41,-000.07,0000.41,0000.04,-000.13,0000.16,-000.03,0000.44,16.2,23.7,,00.0,0657.0,31.0
2021-04-21T01:09:00Z,00000200,01000000,0000.41,-000.10,-000.20,-000.08,0000.09,-000.16,-000.01,0000.24,-000.00,16.3,23.7,,00.0,0657.0,31.0
2021-04-21T01:10:00Z,00000200,01000000,0000.58,0000.33,-000.04,0000.29,0000.09,-000.21,0000.24,0000.28,0000.24,16.4,23.8,,00.0,0657.0,31.0
2021-04-21T01:11:00Z,00000200,01000000,0000.21,0000.37,0000.33,-000.08,0000.07,0000.09,0000.13,0000.14,0000.04,16.5,23.8,,00.0,0657.0,31.0
2021-04-21T01:12:00Z,00000200,01000000,0000.41,-000.13,0000.05,0000.05,0000.11,-000.22,-000.29,-000.24,-000.22,16.5,23.8,,00.0,0657.0,31.0
2021-04-21T01:13:00Z,00000200,01000000,0000.89,0000.18,0000.44,0000.26,0000.14,-000.13,0000.17,0000.22,0000.03,16.6,23.8,,00.0,0657.0,31.0
2021-04-21T01:14:00Z,00000200,01000000,-000.06,0000.04,0000.03,0000.17,0000.31,0000.15,-000.28,-000.23,0000.02,16.6,23.9,,00.0,0657.0,31.0
2021-04-21T01:15:00Z,00000200,01000000,-000.08,0000.15,0000.19,0000.61,0000.03,0000.01,0000.14,0000.44,-000.08,16.7,23.9,,00.0,0657.1,31.0
2021-04-21T01:16:00Z,00000200,01000000,0000.08,0000.24,0000.08,0000.53,-000.05,0000.07,0000.18,-000.17,0000.10,16.8,24.0,,00.0,0657.1,31.1
2021-04-21T01:17:00Z,00000200,01000000,-000.30,0000.40,0000.09,0000.31,0000.26,-000.13,-000.11,-000.22,0000.06,16.8,24.0,,00.0,0657.1,31.1
2021-04-21T01:18:00Z,00000200,01000000,-000.08,0000.11,0000.20,0000.04,-000.02,-000.17,0000.39,0000.41,0000.28,16.9,24.0,,00.0,0657.1,31.1
2021-04-21T01:19:00Z,00000200,01000000,0000.52,0000.35,0000.37,0000.60,0000.05,0000.15,-000.45,-000.02,-000.13,16.9,24.1,,00.0,0657.1,31.1
2021-04-21T01:20:00Z,00000200,01000000,0000.79,0000.19,0000.10,0000.46,0000.11,0000.10,0000.56,0000.07,0000.13,17.0,24.1,,00.0,0657.1,31.1
2021-04-21T01:21:00Z,00000200,01000000,0000.60,0000.35,0000.07,0000.35,-000.04,0000.10,-000.23,-000.12,-000.03,17.1,24.2,,00.0,0657.1,31.1
2021-04-21T01:22:00Z,00000200,01000000,0000.29,0000.16,-000.01,0000.11,0000.05,-000.06,0000.01,0000.09,-000.37,17.1,24.2,,00.0,0657.1,31.1
2021-04-21T01:23:00Z,00000200,01000000,0000.31,0000.29,0000.34,0000.57,-000.06,-000.20,-000.37,-000.44,-000.16,17.1,24.2,,00.0,0657.1,31.1
2021-04-21T01:24:00Z,00000200,01000000,0000.66,0000.20,0000.15,0000.35,-000.03,0000.00,0000.43,0000.20,0000.45,17.1,24.2,,00.0,0657.1,31.1
2021-04-21T01:25:00Z,00000200,01000000,0000.14,0000.30,0000.21,0000.37,-000.13,0000.02,-000.13,0000.11,0000.03,17.0,24.2,,00.0,0657.2,31.0
2021-04-21T01:26:00Z,00000200,01000000,0000.44,-000.20,0000.02,0000.52,-000.13,0000.17,0000.24,0000.24,0000.13,17.0,24.2,,00.0,0657.2,31.0
2021-04-21T01:27:00Z,00000200,01000000,0000.62,0000.53,0000.56,0000.17,0000.27,0000.22,0000.00,0000.06,-000.15,16.9,24.2,,00.0,0657.2,31.0
2021-04-21T01:28:00Z,00000200,01000000,0000.08,0000.11,0000.14,0000.24,0000.12,0000.19,0000.02,-000.07,0000.07,16.9,24.1,,00.0,0657.2,31.0
2021-04-21T01:29:00Z,00000200,01000000,0000.06,-000.11,0000.41,-000.05,0000.04,0000.41,-000.00,-000.04,0000.02,16.8,24.1,,00.0,0657.2,31.0
2021-04-21T01:30:00Z,00000200,01000000,0000.57,0000.20,0000.20,0000.52,0000.21,0000.50,0000.08,-000.03,-000.23,16.8,24.1,,00.0,0657.2,31.0
2021-04-21T01:31:00Z,00000200,01000000,0000.41,0000.15,0000.33,0000.30,0000.09,0000.12,-000.12,-000.37,-000.25,16.7,24.0,,00.0,0657.2,31.0
2021-04-21T01:32:00Z,00000200,01000000,-000.13,0000.38,0000.31,0000.46,0000.17,-000.00,0000.05,0000.45,0000.53,16.7,24.0,,00.0,0657.2,31.0
2021-04-21T01:33:00Z,00000200,01000000,0000.73,0000.13,0000.07,0000.28,0000.23,0000.23,0000.21,-000.05,-000.01,16.6,24.0,,00.0,0657.2,31.0
2021-04-21T01:34:00Z,00000200,01000000,0000.56,0000.32,0000.32,0000.31,0000.01,0000.06,0000.30,0000.21,0000.09,16.6,23.9,,00.0,0657.2,31.0
2021-04-21T01:35:00Z,00000200,01000000,-000.03,0000.29,0000.00,0000.34,0000.02,-000.00,-000.26,0000.33,0000.04,16.6,23.9,,00.0,0657.2,31.0
2021-04-21T01:36:00Z,00000200,01000000,-000.39,0000.27,0000.26,0000.55,0000.40,-000.04,0000.43,-000.20,0000.13,16.6,23.9,,00.0,0657.2,31.0
2021-04-21T01:37:00Z,00000200,01000000,0000.74,0000.29,0000.16,0000.55,-000.05,-000.01,-000.16,0000.11,0000.28,16.5,23.9,,00.0,0657.2,30.9
2021-04-21T01:38:00Z,00000200,01000000,0000.92,0000.45,0000.18,0000.44,0000.21,0000.02,0000.52,0000.17,-000.34,16.5,23.8,,00.0,0657.2,31.0
2021-04-21T01:39:00Z,00000200,01000000,0000.25,0000.40,0000.10,0000.20,0000.25,0000.10,-000.08,0000.25,0000.45,16.5,23.9,,00.0,0657.2,31.0
2021-04-21T01:40:00Z,00000200,01000000,0000.54,0000.46,0000.01,0000.49,0000.20,0000.06,0000.16,0000.08,0000.00,16.6,23.9,,00.0,0657.2,31.0
2021-04-21T01:41:00Z,00000200,01000000,0000.57,0000.43,-000.14,0000.09,-000.02,0000.08,-000.23,-000.06,0000.04,16.6,23.9,,00.0,0657.2,31.0
2021-04-21T01:42:00Z,00000200,01000000,0000.41,0000.31,0000.01,0000.71,0000.28,-000.11,0000.41,0000.14,-000.02,16.7,23.9,,00.0,0657.2,31.0
2021-04-21T01:43:00Z,00000200,01000000,0000.33,0000.33,0000.30,0000.13,0000.25,0000.46,-000.26,-000.36,0000.13,16.8,24.0,,00.0,0657.2,31.0
2021-04-21T01:44:00Z,00000200,01000000,0000.46,0000.16,0000.10,0000.38,0000.00,-000.13,0000.40,0000.49,0000.06,16.8,24.0,,00.0,0657.2,31.1
2021-04-21T01:45:00Z,00000200,01000000,0000.29,0000.53,0000.49,0000.45,0000.14,0000.12,-000.16,0000.06,0000.01,16.9,24.0,,00.0,0657.2,31.1
2021-04-21T01:46:00Z,00000200,01000000,0000.54,0000.30,0000.09,0000.85,-000.08,0000.09,0000.34,0000.23,0000.21,16.9,24.1,,00.0,0657.2,31.0
2021-04-21T01:47:00Z,00000200,01000000,0000.53,0000.16,0000.15,0000.20,0000.01,-000.16,-000.19,-000.11,0000.09,17.0,24.1,,00.0,0657.2,31.1
2021-04-21T01:48:00Z,00000200,01000000,0000.87,0000.39,-000.13,0000.50,0000.17,0000.05,0000.28,0000.20,-000.07,17.1,24.1,,00.0,0657.2,31.1
2021-04-21T01:49:00Z,00000200,01000000,0000.41,0000.32,0000.63,-000.15,0000.13,0000.17,-000.16,-000.08,0000.12,17.1,24.2,,00.0,0657.2,31.1
2021-04-21T01:50:00Z,00000200,01000000,-000.57,0000.40,-000.05,0000.45,0000.19,-000.04,0000.23,0000.32,0000.10,17.2,24.2,,00.0,0657.2,31.1
2021-04-21T01:51:00Z,00000200,01000000,0000.58,0000.14,0000.41,0000.17,0000.08,0000.19,-000.09,-000.20,-000.13,17.2,24.2,,00.0,0657.2,31.1
2021-04-21T01:52:00Z,00000200,01000000,0001.07,0000.16,0000.07,0000.21,0000.04,0000.10,0000.01,0000.02,-000.00,17.3,24.3,,00.0,0657.2,31.1
2021-04-21T01:53:00Z,00000200,01000000,0000.06,0000.00,0000.32,0000.59,0000.01,0000.01,0000.17,0000.07,-000.08,17.3,24.3,,00.0,0657.2,31.1
2021-04-21T01:54:00Z,00000200,01000000,0000.24,0000.29,0000.00,0000.28,0000.07,0000.15,-000.26,-000.35,-000.09,17.3,24.3,,00.0,0657.2,31.1
2021-04-21T01:55:00Z,00000200,01000000,0000.67,0000.14,0000.20,0000.56,0000.25,-000.04,-000.04,0000.16,0000.44,17.2,24.3,,00.0,0657.2,31.0
2021-04-21T01:56:00Z,00000200,01000000,0000.48,0000.28,0000.51,0000.12,0000.11,0000.01,-000.06,-000.16,-000.63,17.2,24.3,,00.0,0657.2,31.0
2021-04-21T01:57:00Z,00000200,41000000,,,,,,,0000.57,0000.46,0000.41,17.2,24.3,,00.0,0657.2,31.0
2021-04-21T01:58:00Z,00000200,61000000,,,,,,,-000.00,-000.09,-000.08,16.7,24.4,,00.0,0656.2,31.0
2021-04-21T01:59:00Z,00000200,21000000,,,,,,,-000.43,-000.22,0000.08,16.7,24.5,,00.0,0656.2,31.0
